(360882) = 2005 SN80

Discovered at Kitt Peak on 2005-09-24 by Spacewatch.

Orbit

Orbit type: Main Belt

Note: WebGL enabled browser required.

epoch2023-02-25.0
epoch JD2460000.5
perihelion date2021-06-22.91153
perihelion JD2459388.41153
argument of perihelion (°)5.14632
ascending node (°)51.04041
inclination (°)1.97458
eccentricity0.1118319
perihelion distance (AU)2.6182560
Tisserand w.r.t. Jupiter3.3
ΔV w.r.t. Earth (km/sec)10.1
semimajor axis (AU)2.9479284
mean anomaly (°)119.19078
mean daily motion (°/day)0.19472800
aphelion distance (AU)3.278
period (years)5.06
P-vector [x]0.55652940
P-vector [y]0.76103502
P-vector [z]0.33331774
Q-vector [x]-0.83039579
Q-vector [y]0.49657595
Q-vector [z]0.25269578
absolute magnitude16.95
phase slope0.15
uncertainty0
referenceMPO 745323
observations used167
oppositions11
arc length (days)6444
first opposition used2005
last opposition used2023
residual rms (arc-secs)0.93
perturbers coarse indicatorM-v
perturbers precise indicator003Ek
first observation date used2005-08-30.0
last observation date used2023-04-22.0
computer nameMPCLINUX
Minimum Orbit Intersection Distances (in AU)
for orbit epoch: 2460000.5, reference: E2023-FF8
Mercury2.30521
Venus1.89645
Earth1.62858
Mars1.09105
Jupiter2.03956
Saturn6.34454
Uranus15.3415
Neptune27.1296

Observations

170 total observations over interval: 2005 08 30.44162 – 2023 04 22.339036
These data are available for download (format description).

Date (UT) J2000 RA J2000 Dec Magn Location Ref
2005 08 30.44162 00 52 47.39 +03 11 27.0 21.6 V 691 – Steward Observatory, Kitt Peak-Spacewatch MPS 150756
2005 08 30.45897 00 52 46.99 +03 11 24.9 21.2 V 691 – Steward Observatory, Kitt Peak-Spacewatch MPS 150756
2005 08 30.47625 00 52 46.58 +03 11 22.8 21.2 V 691 – Steward Observatory, Kitt Peak-Spacewatch MPS 150756
2005 09 24.25011 00 38 03.97 +01 40 51.3 20.3 V 691 – Steward Observatory, Kitt Peak-Spacewatch MPS 144210
2005 09 24.26746 00 38 03.13 +01 40 46.5 20.9 V 691 – Steward Observatory, Kitt Peak-Spacewatch MPS 144210
2005 09 24.28481 00 38 02.31 +01 40 41.4 20.9 V 691 – Steward Observatory, Kitt Peak-Spacewatch MPS 144210
2005 09 30.16686 00 33 25.16 +01 14 00.9 20.6 V 691 – Steward Observatory, Kitt Peak-Spacewatch MPS 144210
2005 09 30.18433 00 33 24.33 +01 13 56.5 20.7 V 691 – Steward Observatory, Kitt Peak-Spacewatch MPS 144210
2005 09 30.20188 00 33 23.44 +01 13 51.6 20.3 V 691 – Steward Observatory, Kitt Peak-Spacewatch MPS 144210
2005 10 01.28244 00 32 31.52 +01 08 57.1 20.3 V G96 – Mt. Lemmon Survey MPS 144210
2005 10 01.28399 00 32 31.44 +01 08 56.7 21.3   705 – Apache Point MPS 211778
2005 10 01.28483 00 32 31.40 +01 08 56.4 20.5 V 705 – Apache Point MPS 211778
2005 10 01.28810 00 32 31.23 +01 08 55.5 20.4 V G96 – Mt. Lemmon Survey MPS 144210
2005 10 01.29380 00 32 30.94 +01 08 54.0 20.5 V G96 – Mt. Lemmon Survey MPS 144210
2005 10 01.29942 00 32 30.66 +01 08 52.5 20.5 V G96 – Mt. Lemmon Survey MPS 144210
2005 10 03.30236 00 30 54.54 +00 59 50.4 19.4 V G96 – Mt. Lemmon Survey MPS 144210
2005 10 03.30782 00 30 54.25 +00 59 49.0 19.4 V G96 – Mt. Lemmon Survey MPS 144210
2005 10 03.31331 00 30 54.00 +00 59 47.7 19.5 V G96 – Mt. Lemmon Survey MPS 144210
2005 10 03.31881 00 30 53.71 +00 59 46.3 20.2 V G96 – Mt. Lemmon Survey MPS 144210
2005 10 06.16099 00 28 38.16 +00 47 10.2 21.0 V 691 – Steward Observatory, Kitt Peak-Spacewatch MPS 144210
2005 10 06.18559 00 28 36.94 +00 47 03.9 20.5 V 691 – Steward Observatory, Kitt Peak-Spacewatch MPS 144210
2005 10 06.20286 00 28 36.12 +00 46 59.3 20.5 V 691 – Steward Observatory, Kitt Peak-Spacewatch MPS 144210
2005 10 12.31363 00 23 52.42 +00 21 24.4 20.8 V 291 – LPL/Spacewatch II MPS 146163
2005 10 12.31734 00 23 52.25 +00 21 23.3 20.7 V 291 – LPL/Spacewatch II MPS 146163
2005 10 12.32127 00 23 52.07 +00 21 22.5 20.8 V 291 – LPL/Spacewatch II MPS 146163
2005 10 20.26970 00 18 18.16 -00 07 08.0 21.2   705 – Apache Point MPS 211541
2005 10 20.27053 00 18 18.12 -00 07 08.1 20.6 V 705 – Apache Point MPS 211541
2005 10 26.24081 00 14 46.14 -00 23 46.3 21.7   705 – Apache Point MPS 211778
2005 10 26.24164 00 14 46.11 -00 23 46.3 21.0 V 705 – Apache Point MPS 211778
2005 10 27.26133 00 14 13.90 -00 26 08.5 22.1   705 – Apache Point MPS 211778
2005 10 27.26216 00 14 13.88 -00 26 08.5 21.3 V 705 – Apache Point MPS 211778
2005 10 28.21355 00 13 45.12 -00 28 13.3 20.6 V G96 – Mt. Lemmon Survey MPS 147554
2005 10 28.21944 00 13 44.90 -00 28 14.1 20.9 V G96 – Mt. Lemmon Survey MPS 147554
2005 10 28.22536 00 13 44.76 -00 28 14.5 20.7 V G96 – Mt. Lemmon Survey MPS 147554
2005 10 28.23124 00 13 44.54 -00 28 15.5 20.5 V G96 – Mt. Lemmon Survey MPS 147554
2005 10 30.22832 00 12 47.72 -00 32 10.8 22.3   705 – Apache Point MPS 211778
2005 10 30.22914 00 12 47.70 -00 32 11.0 21.6 V 705 – Apache Point MPS 211778
2005 11 01.22461 00 11 56.17 -00 35 30.5 21.5   705 – Apache Point MPS 211778
2005 11 01.22544 00 11 56.16 -00 35 30.5 21.0 V 705 – Apache Point MPS 211778
2005 11 03.07345 00 11 13.53 -00 38 02.1 21.3 V 691 – Steward Observatory, Kitt Peak-Spacewatch MPS 147554
2005 11 03.08671 00 11 13.27 -00 38 03.1 20.9 V 691 – Steward Observatory, Kitt Peak-Spacewatch MPS 147554
2005 11 03.09968 00 11 12.93 -00 38 04.6 20.9 V 691 – Steward Observatory, Kitt Peak-Spacewatch MPS 147554
2005 11 05.28344 00 10 28.23 -00 40 22.4 22.1   705 – Apache Point MPS 211541
2005 11 05.28427 00 10 28.22 -00 40 22.5 21.2 V 705 – Apache Point MPS 211541
2005 11 07.27455 00 09 53.78 -00 41 48.5 22.5   705 – Apache Point MPS 211778
2005 11 07.27538 00 09 53.77 -00 41 48.5 21.6 V 705 – Apache Point MPS 211778
2005 11 19.23183 00 08 30.52 -00 37 02.3 20.8   705 – Apache Point MPS 211778
2005 11 19.23266 00 08 30.52 -00 37 02.3 20.8 V 705 – Apache Point MPS 211778
2005 11 26.23014 00 09 19.92 -00 23 51.5 22.2   705 – Apache Point MPS 211778
2005 11 26.23346 00 09 19.95 -00 23 51.0 21.5 V 705 – Apache Point MPS 211778
2006 12 24.36652 08 45 35.28 +20 43 23.7 21.7 V G96 – Mt. Lemmon Survey MPS 200391
2006 12 24.37241 08 45 35.10 +20 43 24.3 21.1 V G96 – Mt. Lemmon Survey MPS 200391
2006 12 24.37825 08 45 34.88 +20 43 25.8 21.4 V G96 – Mt. Lemmon Survey MPS 200391
2006 12 24.38414 08 45 34.70 +20 43 27.0 20.9 V G96 – Mt. Lemmon Survey MPS 200391
2007 02 17.11506 08 02 19.70 +23 22 10.7   691 – Steward Observatory, Kitt Peak-Spacewatch MPS 200391
2007 02 17.13737 08 02 18.90 +23 22 12.6   691 – Steward Observatory, Kitt Peak-Spacewatch MPS 200391
2007 02 17.15991 08 02 17.98 +23 22 14.3   691 – Steward Observatory, Kitt Peak-Spacewatch MPS 200391
2010 09 06.60090 00 27 00.02 +00 15 22.2 20.8 r 568 – Maunakea MPS 1142018
2010 09 06.60962 00 26 59.70 +00 15 20.2 20.7 r 568 – Maunakea MPS 1142018
2010 09 06.61837 00 26 59.38 +00 15 18.1 20.6 r 568 – Maunakea MPS 1142018
2011 11 28.33861 08 25 17.36 +21 26 38.2 22.0 V G96 – Mt. Lemmon Survey MPS 402368
2011 11 28.34737 08 25 17.47 +21 26 39.0 21.3 V G96 – Mt. Lemmon Survey MPS 402368
2011 11 28.35618 08 25 17.40 +21 26 39.9 21.8 V G96 – Mt. Lemmon Survey MPS 402368
2011 11 28.36492 08 25 17.47 +21 26 41.1 21.6 V G96 – Mt. Lemmon Survey MPS 402368
2011 12 25.35913 08 17 26.19 +22 20 18.4 20.8 V 691 – Steward Observatory, Kitt Peak-Spacewatch MPS 404656
2011 12 25.37718 08 17 25.37 +22 20 22.1 20.9 V 691 – Steward Observatory, Kitt Peak-Spacewatch MPS 404656
2011 12 25.39523 08 17 24.61 +22 20 25.0 20.9 V 691 – Steward Observatory, Kitt Peak-Spacewatch MPS 404656
2012 01 02.32218 08 11 36.84 +22 44 55.0 20.6 V 691 – Steward Observatory, Kitt Peak-Spacewatch MPS 405940
2012 01 02.33996 08 11 35.85 +22 44 58.4 20.8 V 691 – Steward Observatory, Kitt Peak-Spacewatch MPS 405940
2012 01 02.36068 08 11 34.84 +22 45 02.3 20.7 V 691 – Steward Observatory, Kitt Peak-Spacewatch MPS 405940
2012 01 18.26840 07 57 18.25 +23 34 12.3 20.1 V G96 – Mt. Lemmon Survey MPS 407718
2012 01 18.27365 07 57 17.89 +23 34 13.2 20.5 V G96 – Mt. Lemmon Survey MPS 407718
2012 01 18.27893 07 57 17.56 +23 34 13.9 20.4 V G96 – Mt. Lemmon Survey MPS 407718
2012 01 18.28420 07 57 17.28 +23 34 14.9 20.1 V G96 – Mt. Lemmon Survey MPS 407718
2013 04 06.37561 13 22 01.63 -07 01 51.8 21.1 V G96 – Mt. Lemmon Survey MPS 462699
2013 04 06.38148 13 22 01.38 -07 01 50.3 20.9 V G96 – Mt. Lemmon Survey MPS 462699
2013 04 06.38734 13 22 01.09 -07 01 49.1 21.7 V G96 – Mt. Lemmon Survey MPS 462699
2013 04 06.39312 13 22 00.84 -07 01 47.3 21.1 V G96 – Mt. Lemmon Survey MPS 462699
2013 04 11.38023 13 18 05.433 -06 40 21.54 21.6 w F51 – Pan-STARRS 1, Haleakala MPS 462699
2013 04 11.40761 13 18 04.095 -06 40 14.52 21.2 w F51 – Pan-STARRS 1, Haleakala MPS 462699
2013 04 11.42133 13 18 03.434 -06 40 10.91 21.3 w F51 – Pan-STARRS 1, Haleakala MPS 462699
2015 09 06.28183 00 01 27.58 -02 41 10.7 20.7 V 691 – Steward Observatory, Kitt Peak-Spacewatch MPS 626621
2015 09 06.30061 00 01 26.83 -02 41 15.4 20.4 V 691 – Steward Observatory, Kitt Peak-Spacewatch MPS 626621
2015 09 06.31940 00 01 25.96 -02 41 20.8 20.4 V 691 – Steward Observatory, Kitt Peak-Spacewatch MPS 626621
2015 09 12.39712 23 57 02.675 -03 09 00.90 20.8 w F51 – Pan-STARRS 1, Haleakala MPS 628521
2015 09 12.40888 23 57 02.121 -03 09 04.23 20.9 w F51 – Pan-STARRS 1, Haleakala MPS 628521
2015 09 12.42063 23 57 01.566 -03 09 07.52 20.9 w F51 – Pan-STARRS 1, Haleakala MPS 628521
2015 09 12.43238 23 57 01.014 -03 09 10.79 20.6 w F51 – Pan-STARRS 1, Haleakala MPS 628521
2016 12 05.29765 07 57 06.00 +22 57 12.6 20.8 V G96 – Mt. Lemmon Survey MPS 751750
2016 12 05.30784 07 57 05.78 +22 57 13.9 21.6 V G96 – Mt. Lemmon Survey MPS 751750
2016 12 05.31298 07 57 05.70 +22 57 14.7 21.1 V G96 – Mt. Lemmon Survey MPS 751750
2016 12 05.31814 07 57 05.63 +22 57 15.0 20.9 V G96 – Mt. Lemmon Survey MPS 751750
2017 02 02.28124 07 11 29.94 +25 06 54.6 20.8 V G96 – Mt. Lemmon Survey MPS 765737
2017 02 02.28621 07 11 29.69 +25 06 55.1 21.1 V G96 – Mt. Lemmon Survey MPS 765737
2017 02 02.29045 07 11 29.54 +25 06 55.1 20.6 V G96 – Mt. Lemmon Survey MPS 765737
